Wind_Speed
27 27 26 23 22 20 21 22 21 21 21 21 20 19 19 18 18 20 20 17 15 16 15 14 13 13 11 11 13 13 10 10 11 9 9 9 8 6 5 4 5 4
28 27 27 25 23 22 22 23 23 23 22 22 22 20 21 21 21 21 20 18 17 17 17 16 15 16 15 14 14 14 13 11 10 9 9 9 9 7 6 6 6 7
29 28 28 26 24 24 24 24 24 24 23 22 22 22 22 23 24 23 21 21 19 18 18 18 18 18 17 16 16 15 14 13 12 10 10 10 10 9 8 8 9 9
30 28 28 27 26 26 26 25 25 25 24 23 24 24 24 24 25 24 23 22 21 20 21 20 19 19 19 18 17 16 15 14 13 12 11 10 11 12 11 11 11 9
31 29 29 28 28 29 29 28 27 27 27 27 26 26 27 27 27 25 24 23 22 22 22 21 21 20 19 19 18 17 16 15 15 14 13 12 11 12 13 12 12 11
32 31 31 30 30 31 31 31 31 30 30 30 30 29 29 29 29 27 26 26 25 24 23 23 23 21 20 21 20 19 18 17 16 15 15 14 13 12 12 12 13 13
33 32 32 32 31 32 33 33 33 33 32 31 31 31 31 31 30 28 28 27 26 25 25 25 25 24 22 22 22 21 20 18 16 15 15 15 15 14 14 13 13 12
34 33 33 33 33 34 35 35 34 35 34 33 32 33 33 31 30 28 28 28 28 27 27 26 25 25 24 23 22 22 21 19 17 16 15 14 14 13 14 14 14 13
35 34 34 34 34 34 35 35 36 37 36 35 34 34 33 31 29 29 29 29 28 28 27 27 26 26 25 24 23 22 22 20 18 17 16 15 14 13 13 13 14 14
36 35 35 35 34 34 34 34 36 39 38 37 35 34 33 31 29 29 31 31 30 29 29 28 27 26 25 24 23 22 22 20 18 17 16 16 15 15 15 15 14 15
37 36 36 36 35 34 35 35 34 36 38 38 37 34 32 32 31 30 32 33 33 32 31 30 28 27 26 25 23 22 21 20 18 17 16 16 15 15 15 15 14 14
38 37 37 38 37 35 36 36 34 34 35 36 38 37 33 33 33 33 33 35 35 34 33 31 29 28 28 26 24 23 21 20 18 17 17 17 16 16 16 15 15 14
38 39 39 39 39 37 36 37 36 34 33 35 39 39 36 35 36 35 35 36 35 33 33 32 30 28 28 27 25 23 21 20 19 18 18 18 17 17 17 16 16 15
39 39 39 39 39 39 38 38 38 37 35 36 38 38 37 38 40 37 34 34 33 32 31 31 31 29 29 28 26 24 22 21 20 19 19 18 17 17 17 16 15 14
39 38 38 38 38 39 39 40 40 39 38 36 37 38 36 37 41 39 35 32 30 30 30 30 31 30 30 31 30 27 25 23 22 21 20 18 17 17 16 16 15 14
38 38 38 38 39 40 40 40 40 40 39 37 37 39 36 34 37 36 33 32 30 29 30 30 31 31 32 33 32 30 28 26 24 23 22 20 19 17 16 16 16 16
38 37 38 38 39 40 40 39 39 39 39 37 36 37 33 31 31 29 29 32 31 30 31 32 31 32 33 34 32 29 28 26 25 24 23 22 20 19 18 18 17 18
38 37 37 37 37 38 38 38 37 36 35 33 33 33 30 27 28 30 31 32 30 29 31 32 32 32 33 33 30 28 27 25 23 22 22 22 21 20 19 19 18 17
38 36 36 36 36 36 35 33 33 32 31 31 30 29 27 25 26 28 30 30 29 29 29 29 29 30 31 30 29 28 27 25 22 21 21 21 20 20 19 18 17 16
37 35 35 35 34 32 31 30 31 32 31 30 27 25 24 23 22 24 26 27 27 27 27 25 25 27 28 29 28 27 27 26 24 21 19 18 18 19 19 19 19 18
38 36 34 33 31 30 30 31 31 30 28 26 23 21 22 22 21 22 23 24 23 23 23 22 21 24 26 27 27 26 25 27 26 22 18 17 18 17 17 18 18 18
41 39 34 30 29 29 29 28 28 27 25 23 21 19 18 19 20 21 21 22 22 21 20 19 17 20 23 25 25 24 25 27 27 23 19 17 17 16 16 16 16 17
38 36 31 27 28 28 24 23 24 24 23 22 21 19 16 15 16 18 19 21 22 22 20 18 16 17 20 23 24 24 25 26 26 23 20 18 17 16 16 16 16 17
30 30 28 26 26 26 22 20 20 19 18 19 19 17 16 13 13 15 17 20 21 22 21 19 17 17 19 22 24 24 24 24 24 22 20 18 16 15 15 15 16 18
26 27 27 25 23 21 19 18 18 17 16 17 16 16 17 16 15 15 16 18 17 18 19 18 17 18 21 23 24 23 22 22 21 20 18 16 16 15 16 16 17 19
25 26 25 22 20 20 19 19 19 19 18 18 17 16 18 19 18 17 16 15 14 14 17 17 14 16 19 22 22 22 21 20 20 18 16 16 15 15 16 16 16 17
Wind_Direction
191 191 191 189 189 186 176 173 176 177 176 177 178 179 179 178 182 181 179 181 181 179 181 186 193 192 188 188 190 186 179 187 193 185 182 191 200 208 219 240 251 270
191 190 189 187 187 183 177 177 178 179 180 179 180 180 181 184 185 185 188 187 181 179 185 188 188 193 194 191 190 190 190 194 196 192 187 197 211 217 221 238 248 248
190 188 186 185 184 182 180 180 180 181 180 179 182 182 183 188 191 193 194 190 186 184 186 189 190 193 194 193 194 193 192 194 196 201 203 198 207 217 224 239 250 251
190 187 185 184 184 184 183 183 181 182 181 182 186 186 186 190 194 197 195 191 191 188 187 189 193 194 194 194 196 193 191 196 199 208 213 203 203 211 216 231 243 248
189 187 185 184 185 185 185 185 184 183 184 187 191 191 191 194 195 194 194 192 191 188 188 191 192 194 195 197 199 195 192 197 202 208 213 213 215 216 219 227 229 228
188 187 186 186 186 185 186 187 186 186 188 192 194 194 196 198 196 193 192 192 190 189 190 192 193 194 196 197 199 199 197 199 205 210 214 219 224 223 225 231 228 224
187 188 188 188 188 186 187 189 190 190 192 195 197 197 199 200 198 195 193 191 190 190 191 192 193 194 194 196 198 200 200 201 205 211 214 220 225 225 228 234 236 237
187 188 189 190 189 189 190 191 192 194 195 196 198 201 202 202 199 196 193 192 190 190 192 193 194 194 193 194 198 201 201 201 205 211 216 222 226 227 229 234 242 249
187 189 190 192 191 191 191 193 195 197 198 199 201 203 204 204 202 198 194 192 191 191 193 195 195 194 194 195 198 201 202 202 205 210 217 225 231 235 235 235 239 243
189 190 192 194 194 193 193 195 198 199 201 203 203 204 204 205 203 200 196 193 191 192 194 195 195 194 193 195 197 200 201 202 203 207 213 219 225 231 234 234 235 237
190 191 194 196 197 197 197 197 197 200 203 204 204 203 204 205 204 200 198 195 192 193 194 194 195 194 192 193 196 198 199 201 203 207 212 216 220 226 230 230 232 236
191 193 196 197 198 199 199 198 199 201 202 204 205 205 205 207 206 202 199 197 196 196 196 194 194 194 193 194 195 198 199 200 204 208 213 217 220 225 230 230 231 236
193 196 197 197 198 199 199 200 203 204 203 205 207 207 207 209 208 205 202 201 199 199 198 197 195 194 194 194 194 196 198 200 203 208 214 217 219 224 229 229 228 230
195 198 198 198 199 200 201 203 206 207 207 207 208 208 210 212 211 207 204 202 200 200 199 198 196 194 194 194 194 194 196 200 203 207 213 217 217 222 227 230 231 226
196 198 199 200 200 202 203 205 206 207 209 210 209 210 211 212 212 208 203 200 199 199 199 199 197 197 197 197 196 196 196 198 202 207 211 214 217 220 223 227 230 226
195 197 199 199 201 203 205 205 206 207 210 212 212 214 213 211 209 205 200 201 202 200 199 199 200 201 201 200 200 199 197 196 200 206 209 211 214 216 219 222 228 231
194 196 198 199 200 202 204 206 206 208 211 213 215 217 216 210 205 198 198 206 207 201 199 201 203 204 204 203 203 202 200 198 199 204 208 210 210 212 216 221 228 234
193 194 197 199 199 201 204 206 208 208 209 210 213 216 213 207 201 197 200 209 210 203 200 203 205 206 207 205 204 204 202 200 201 205 208 209 210 212 216 220 227 233
192 192 195 197 199 201 203 205 204 203 204 205 207 210 208 204 202 201 203 209 210 207 206 205 206 209 209 206 205 206 204 202 204 207 208 209 211 212 214 215 219 225
190 192 193 195 196 196 198 198 200 203 206 207 208 209 208 206 204 205 207 209 209 209 208 207 208 211 210 206 205 207 209 208 208 207 209 212 213 213 215 217 220 225
187 188 189 189 188 189 191 194 200 205 207 207 207 208 209 209 206 205 205 205 204 205 203 204 209 211 207 203 204 209 213 213 211 211 214 217 216 215 219 224 227 228
183 184 182 181 183 186 189 194 200 204 203 202 203 204 207 209 207 205 203 201 203 204 200 202 209 209 203 200 204 211 214 213 213 214 219 221 221 223 226 226 224 221
180 182 179 178 182 185 188 194 199 201 202 203 203 202 201 198 195 198 200 203 207 208 203 202 206 207 205 203 205 209 210 211 215 217 220 225 227 227 225 223 221 223
171 174 173 174 180 186 192 197 200 202 205 207 206 204 205 199 190 192 199 202 205 204 200 198 201 206 210 208 206 206 208 211 215 217 219 223 225 224 224 222 223 230
162 166 169 171 174 182 189 194 198 201 204 206 206 209 214 214 208 205 201 196 193 192 191 194 200 206 210 209 206 205 207 210 213 213 214 218 221 225 228 224 224 232
162 166 167 169 171 176 181 185 188 190 190 192 197 204 210 212 216 215 200 184 184 190 191 194 197 199 201 204 205 205 207 210 211 210 212 216 217 217 217 214 218 228
Height
781 784 786 788 791 793 794 796 798 799 801 802 803 804 805 806 806 806 806 807 808 810 813 816 818 820 821 821 823 824 825 827 828 829 830 831 832 833 835 835 836 836
778 781 783 786 788 790 792 794 795 796 797 798 799 800 801 801 802 802 803 804 806 809 812 814 816 818 819 821 822 823 824 825 826 828 829 829 830 831 833 834 834 835
775 778 781 783 785 787 789 790 791 792 794 795 795 796 796 797 797 798 800 803 806 808 810 812 813 815 817 819 821 822 823 824 826 826 827 827 828 829 830 831 832 833
772 775 778 780 782 784 785 786 787 789 790 791 791 792 792 792 794 796 799 803 805 807 808 810 812 814 816 818 819 821 822 823 824 825 825 825 825 826 827 828 829 830
770 773 775 777 778 780 781 782 784 785 786 786 787 788 788 789 791 795 798 801 803 805 806 809 811 812 814 816 817 818 819 820 822 823 823 824 824 825 825 826 827 828
767 770 771 773 774 776 777 778 779 781 781 782 783 784 785 787 790 793 796 798 800 802 805 806 808 810 812 814 815 816 816 818 819 821 822 823 824 824 825 825 825 826
763 766 768 770 771 772 773 774 775 776 778 780 781 782 783 785 788 791 793 795 797 800 802 804 806 807 809 811 813 814 814 815 817 819 820 821 823 824 824 825 825 825
760 762 764 766 767 768 769 770 772 773 775 777 778 779 780 783 786 789 791 793 795 798 800 802 803 805 807 808 810 812 813 814 815 817 819 820 821 822 823 823 824 824
755 757 760 762 763 764 765 767 768 770 772 773 774 776 779 782 785 787 789 791 794 796 798 800 802 803 805 806 808 810 811 812 813 814 816 818 819 820 821 822 822 823
750 752 755 757 758 760 761 763 764 766 768 770 772 774 777 780 782 784 786 789 791 794 796 798 799 800 802 804 805 807 809 810 811 812 813 815 817 818 820 820 821 821
745 747 750 752 754 756 757 759 760 762 765 767 769 772 774 776 778 781 783 785 787 790 792 795 796 798 799 801 803 805 806 808 809 810 811 812 814 816 817 818 819 820
739 741 744 746 749 751 753 755 757 759 761 764 766 769 771 772 774 777 779 782 784 786 789 792 793 795 796 798 800 802 804 805 806 808 809 810 811 813 815 816 816 817
733 736 738 741 744 746 749 751 753 756 758 760 762 765 767 768 770 773 776 778 781 783 786 789 791 792 794 795 797 799 801 802 803 805 806 807 808 810 812 813 813 814
728 731 734 737 740 742 746 747 749 752 754 756 758 761 763 764 766 770 773 776 779 780 783 786 788 789 790 792 794 795 797 799 800 802 804 805 806 807 810 811 811 812
724 727 730 734 736 739 741 742 744 747 749 752 755 757 759 761 763 766 770 774 777 779 781 784 785 786 786 787 789 790 792 795 797 799 800 802 803 805 807 808 809 810
720 723 727 729 731 733 736 737 740 743 746 749 752 754 756 758 761 765 769 773 776 776 778 780 781 782 782 783 784 786 788 790 793 795 797 798 800 801 803 805 807 808
716 719 722 725 727 729 732 734 737 740 743 746 749 752 755 757 761 764 768 772 774 773 773 775 776 778 778 780 782 785 787 788 789 792 794 795 796 798 800 802 804 806
711 714 718 721 723 726 729 732 735 738 741 745 747 750 754 757 759 760 762 766 770 770 769 770 772 774 775 777 780 783 786 787 788 790 791 792 793 795 797 798 801 803
707 710 714 717 720 724 727 730 733 736 739 742 745 748 752 755 757 758 760 763 766 768 768 769 771 772 773 776 778 781 784 786 787 788 789 790 792 793 794 796 798 800
703 706 710 715 718 722 724 727 730 734 737 741 744 748 751 753 756 758 760 763 764 767 769 770 771 772 773 775 777 780 783 784 785 786 787 789 790 791 792 793 795 798
698 703 708 712 715 718 721 725 729 733 737 740 743 746 749 751 754 756 758 761 763 765 767 768 770 771 772 773 776 778 780 782 783 785 786 787 789 790 791 792 793 796
694 699 704 708 711 716 720 724 728 732 735 739 741 744 747 749 752 754 756 759 762 763 765 767 768 769 771 772 774 776 778 780 781 783 784 786 787 789 790 791 793 795
692 697 701 706 710 715 720 724 727 731 734 737 740 744 746 749 751 753 755 757 759 761 763 765 766 768 770 771 773 775 776 778 779 781 783 785 786 788 789 790 792 793
691 695 701 705 710 715 719 723 727 732 735 738 741 745 747 750 751 752 753 754 755 757 759 761 764 766 768 770 771 773 774 776 778 779 782 784 785 786 788 789 790 791
691 695 701 705 710 714 719 723 727 731 734 737 741 744 747 749 750 751 752 752 753 755 757 759 761 763 765 767 769 771 773 774 776 778 780 782 783 784 786 787 788 788
692 697 701 705 710 714 718 722 725 728 731 734 737 741 744 747 749 751 752 752 753 755 756 757 758 759 762 765 767 769 772 773 775 777 779 780 781 782 783 784 785 786